Total_Precipitation_Accumulation
0.20 0.37 0.64 0.75 1.02 1.53 1.54 1.26 0.81 0.55 0.54 0.63 0.60 0.59 0.74 0.89 1.23 2.25 2.37 2.17 1.45 1.29 1.53 1.55 1.54 1.35 1.23 1.24 1.32 1.24 1.13 1.07 1.18 1.22 1.32 1.46 1.58 1.55 1.51 1.66 1.92 2.16 2.30 2.39 2.47 2.46 2.46 2.34 2.16
0.29 0.46 0.58 0.68 1.22 1.69 1.54 1.19 0.70 0.55 0.45 0.53 0.60 0.54 0.74 0.85 0.89 1.42 1.86 1.69 1.09 0.95 1.13 1.14 1.24 1.20 1.08 0.99 1.05 1.11 1.03 1.06 1.16 1.31 1.52 1.67 1.83 1.82 1.82 1.91 2.04 2.23 2.29 2.30 2.29 2.26 2.18 2.11 1.99
0.26 0.39 0.52 0.67 1.02 1.20 1.07 0.80 0.46 0.39 0.33 0.38 0.51 0.47 0.70 1.11 1.01 1.26 1.48 1.28 0.94 0.85 0.93 1.05 0.98 0.90 0.95 0.93 0.93 1.03 1.08 1.11 1.11 1.26 1.46 1.68 1.99 2.07 2.17 2.26 2.37 2.40 2.25 2.13 2.09 2.07 1.91 1.90 1.86
0.28 0.36 0.36 0.44 0.63 0.67 0.53 0.49 0.35 0.33 0.31 0.31 0.42 0.59 0.95 1.02 0.95 1.10 1.12 1.03 0.76 0.72 0.75 0.79 0.91 0.89 0.92 0.97 0.92 0.96 1.06 1.14 1.19 1.28 1.49 1.69 1.99 2.23 2.44 2.42 2.43 2.36 2.13 2.04 1.96 1.87 1.79 1.85 1.90
0.30 0.29 0.31 0.34 0.39 0.47 0.43 0.37 0.30 0.32 0.29 0.34 0.45 0.83 1.36 1.23 0.90 0.90 0.94 0.86 0.71 0.63 0.70 0.74 0.84 0.88 0.89 0.88 0.93 0.97 0.98 1.14 1.22 1.23 1.40 1.62 1.87 2.25 2.36 2.31 2.22 2.07 1.97 1.91 1.87 1.81 1.73 1.75 1.82
0.18 0.17 0.25 0.24 0.28 0.35 0.35 0.29 0.28 0.25 0.28 0.40 0.58 0.90 1.38 1.35 1.14 1.09 1.11 0.97 0.90 0.70 0.62 0.76 0.88 0.89 0.84 0.79 0.85 0.91 1.00 1.13 1.24 1.26 1.36 1.53 1.74 1.99 2.04 2.00 1.92 1.79 1.81 1.78 1.76 1.76 1.63 1.55 1.68
0.15 0.11 0.14 0.15 0.19 0.26 0.29 0.25 0.24 0.24 0.34 0.51 0.68 1.03 1.34 1.55 1.37 1.21 1.33 1.40 1.19 0.91 0.79 0.82 0.83 0.79 0.78 0.82 0.86 0.98 1.15 1.28 1.34 1.34 1.42 1.65 1.77 1.82 1.73 1.78 1.75 1.71 1.69 1.69 1.60 1.51 1.41 1.34 1.45
0.08 0.08 0.11 0.10 0.12 0.22 0.21 0.20 0.19 0.24 0.38 0.47 0.64 1.06 1.41 1.36 1.34 1.36 1.52 1.65 1.57 1.20 1.05 0.93 0.89 0.88 0.80 0.82 1.00 1.11 1.26 1.45 1.53 1.53 1.66 1.87 1.92 1.82 1.83 1.75 1.78 1.78 1.81 1.75 1.60 1.43 1.34 1.32 1.38
0.05 0.06 0.07 0.07 0.08 0.15 0.14 0.17 0.20 0.19 0.24 0.41 0.60 0.89 1.01 0.96 1.11 1.33 1.53 1.72 1.90 1.65 1.30 1.12 1.01 1.04 1.06 0.95 1.01 1.24 1.40 1.56 1.66 1.91 2.13 2.27 2.18 1.96 2.12 1.97 2.11 2.09 2.08 2.01 1.87 1.71 1.61 1.47 1.42
0.03 0.03 0.04 0.04 0.04 0.06 0.09 0.14 0.19 0.18 0.37 0.64 0.77 0.88 0.80 0.96 1.08 1.32 1.50 1.62 1.77 1.87 1.42 1.30 1.14 1.07 1.11 1.23 1.49 1.67 1.53 1.73 2.02 2.35 2.51 2.69 2.58 2.45 2.09 2.33 2.60 2.74 2.86 2.73 2.55 2.39 2.03 1.63 1.49
0.01 0.03 0.03 0.03 0.02 0.03 0.08 0.09 0.15 0.19 0.52 0.99 1.14 1.15 1.07 1.04 1.19 1.45 1.72 1.79 1.66 1.73 1.49 1.42 1.43 1.45 1.33 1.46 1.69 1.89 1.93 2.12 2.28 2.38 2.54 2.70 2.40 2.32 2.36 2.60 2.89 3.03 3.12 2.95 2.93 2.86 2.42 2.19 2.14
0.01 0.01 0.02 0.02 0.02 0.04 0.07 0.09 0.13 0.22 0.51 0.80 1.08 1.06 1.21 1.19 1.29 1.55 1.89 2.07 2.06 2.19 1.95 1.79 1.83 1.78 1.72 1.70 1.87 2.00 2.04 2.14 2.29 2.44 2.42 2.52 2.62 2.67 2.77 3.04 2.98 3.08 3.21 3.50 3.12 3.22 2.97 2.69 2.50
0.01 0.01 0.02 0.03 0.03 0.04 0.08 0.16 0.16 0.26 0.38 0.58 0.83 0.85 0.92 1.23 1.61 2.01 2.40 2.41 2.54 2.74 2.70 2.44 2.21 2.08 2.07 2.20 2.21 2.11 2.20 2.33 2.44 2.61 2.60 2.57 2.82 2.96 3.02 3.03 3.16 2.93 3.00 3.39 3.48 3.19 3.31 3.31 3.04
0.01 0.01 0.02 0.04 0.04 0.06 0.10 0.22 0.28 0.37 0.46 0.52 0.78 1.01 1.07 1.43 1.77 2.35 3.01 2.92 2.72 2.93 3.02 2.81 2.65 2.53 2.51 2.73 2.78 2.65 2.47 2.68 2.75 2.74 2.68 2.75 2.97 3.29 3.41 3.33 3.42 3.19 2.99 3.18 3.29 3.23 3.80 3.65 3.46
0.02 0.03 0.05 0.07 0.08 0.12 0.17 0.38 0.52 0.52 0.50 0.58 0.88 1.20 1.44 1.59 1.93 2.29 2.68 3.02 3.17 3.27 3.19 3.15 3.13 3.05 3.12 3.19 3.09 2.86 2.78 2.70 2.79 2.87 2.95 2.95 2.97 3.29 3.46 3.63 3.60 3.39 3.15 3.26 3.29 3.46 3.68 3.41 3.27
0.03 0.06 0.10 0.12 0.13 0.15 0.24 0.63 0.63 0.53 0.53 0.84 1.04 1.38 1.70 1.77 2.03 2.44 2.81 3.34 3.59 3.62 3.62 3.62 3.45 3.52 3.63 3.65 3.48 3.27 3.13 2.98 2.83 2.79 2.96 2.99 3.04 3.25 3.46 3.40 3.36 3.49 3.43 3.54 3.72 3.76 3.74 3.60 3.44
0.08 0.10 0.15 0.15 0.18 0.16 0.22 0.47 0.61 0.57 0.76 1.03 1.27 1.58 1.88 2.14 2.59 3.10 3.37 3.47 3.81 4.13 4.30 4.33 4.25 4.09 3.96 3.89 3.83 3.85 3.82 3.58 3.26 3.11 3.13 3.12 2.97 3.07 3.35 3.34 3.45 3.56 3.57 3.58 3.26 3.71 3.68 3.72 3.53
0.11 0.11 0.15 0.19 0.17 0.19 0.27 0.43 0.53 0.61 0.85 1.26 1.64 1.88 2.14 2.55 3.06 3.43 3.69 4.03 4.17 4.43 4.94 4.91 4.74 4.66 4.62 4.52 4.28 4.28 4.05 3.77 3.64 3.54 3.64 3.43 3.24 3.18 3.42 3.40 3.51 3.55 3.65 3.65 3.57 3.82 3.73 3.55 3.47
0.09 0.11 0.16 0.20 0.17 0.21 0.37 0.56 0.61 0.78 1.08 1.40 1.74 1.98 2.32 2.66 3.03 3.47 3.55 3.81 4.13 4.73 5.19 5.44 5.46 5.28 5.00 4.62 4.25 4.07 4.00 3.97 3.82 3.66 3.46 3.32 3.23 3.30 3.64 3.51 3.81 3.71 3.51 3.47 3.53 3.78 3.65 3.37 3.40
0.09 0.12 0.17 0.19 0.17 0.20 0.40 0.59 0.69 1.03 1.35 1.41 1.58 1.72 1.91 2.35 2.69 3.04 3.23 3.33 3.75 4.34 4.78 4.95 4.71 4.61 4.45 4.21 4.11 4.07 4.27 4.00 3.79 3.68 3.49 3.19 3.13 3.23 3.27 3.56 3.47 3.49 3.59 3.49 3.49 3.73 3.55 3.11 3.23
0.08 0.09 0.14 0.20 0.20 0.27 0.41 0.77 0.97 1.19 1.33 1.35 1.45 1.60 1.71 1.99 2.31 2.63 2.79 2.94 3.18 3.31 3.58 3.75 3.91 3.85 3.74 3.73 3.70 3.73 3.97 3.81 3.67 3.57 3.47 3.08 2.88 2.85 2.98 3.07 3.16 3.49 3.42 3.46 3.53 3.48 3.42 3.13 3.05
0.09 0.09 0.09 0.14 0.21 0.35 0.49 1.06 1.31 1.26 1.31 1.43 1.43 1.41 1.65 1.94 1.94 2.06 2.31 2.48 2.77 2.96 3.16 3.21 3.23 3.35 3.38 3.46 3.37 3.20 3.15 3.15 3.15 3.22 3.15 3.06 2.87 2.75 2.78 2.84 2.90 3.01 2.93 3.08 2.82 2.97 3.24 3.37 3.08
0.07 0.07 0.09 0.17 0.27 0.38 0.49 0.81 1.23 1.56 1.62 1.43 1.36 1.25 1.45 1.59 1.50 1.49 1.69 1.84 2.12 2.37 2.61 2.73 2.82 2.91 3.06 3.12 3.06 3.03 2.87 2.90 2.97 3.03 3.03 2.97 2.89 2.83 2.80 2.79 2.80 2.73 2.59 2.71 2.72 2.94 2.97 2.98 2.96
0.06 0.09 0.16 0.30 0.49 0.73 0.61 0.74 1.16 1.52 1.78 1.52 1.30 1.20 1.30 1.28 1.25 1.37 1.52 1.63 1.80 2.10 2.30 2.40 2.52 2.57 2.69 2.75 2.82 2.86 2.84 2.81 2.81 2.84 2.84 2.82 2.81 2.69 2.63 2.60 2.63 2.56 2.52 2.59 2.68 2.81 2.73 2.76 2.91
0.07 0.16 0.51 0.88 1.17 1.19 0.79 0.83 1.17 1.17 1.20 1.23 1.19 1.23 1.24 1.18 1.14 1.14 1.23 1.38 1.57 1.82 2.00 2.05 2.14 2.22 2.23 2.28 2.40 2.52 2.58 2.64 2.51 2.46 2.50 2.51 2.33 2.22 2.29 2.24 2.37 2.37 2.39 2.43 2.56 2.65 2.61 2.74 2.88
0.12 0.17 0.56 0.87 0.91 1.01 0.89 1.15 1.47 1.17 1.07 1.01 1.09 1.19 1.19 1.05 0.98 1.01 1.11 1.17 1.26 1.46 1.69 1.74 1.83 1.93 2.08 2.11 2.17 2.29 2.29 2.31 2.17 2.21 2.24 2.20 1.98 1.90 2.08 2.21 2.26 2.25 2.24 2.30 2.56 2.39 2.41 2.59 2.62
0.16 0.18 0.25 0.48 0.57 0.76 0.98 1.27 1.43 1.12 1.08 1.19 1.31 1.29 1.24 0.99 0.84 0.86 0.87 0.91 0.93 1.05 1.23 1.36 1.62 1.76 1.87 1.95 2.04 2.05 2.01 2.07 2.01 2.04 2.17 2.11 2.08 1.95 2.00 2.04 2.14 2.20 2.31 2.43 2.55 2.37 2.47 2.70 2.59
0.16 0.16 0.20 0.39 0.61 0.81 0.93 1.31 1.62 1.57 1.40 1.33 1.39 1.24 0.97 0.80 0.70 0.65 0.66 0.66 0.75 0.87 0.98 1.13 1.33 1.43 1.54 1.73 1.86 1.76 1.95 2.03 2.01 1.99 1.89 1.92 2.00 1.99 1.87 1.82 1.87 1.92 2.02 2.19 2.34 2.26 2.41 2.66 2.61
0.19 0.22 0.29 0.41 0.45 0.69 1.06 1.28 1.22 1.27 1.20 1.25 1.24 1.06 0.82 0.68 0.62 0.63 0.63 0.66 0.72 0.79 0.94 1.11 1.33 1.46 1.46 1.56 1.69 1.75 1.86 1.98 2.01 1.92 1.81 1.82 1.87 1.92 1.85 1.81 1.80 1.77 1.72 1.83 2.00 2.00 2.22 2.27 2.27
0.17 0.20 0.28 0.43 0.42 0.46 0.73 0.96 0.70 0.75 0.77 0.85 0.91 0.79 0.72 0.69 0.64 0.71 0.76 0.76 0.78 0.87 1.01 1.17 1.30 1.45 1.51 1.63 1.83 1.98 1.94 1.93 1.96 1.92 1.82 1.71 1.64 1.72 1.80 1.84 1.75 1.59 1.62 1.79 1.81 1.87 2.10 2.20 2.17